TimeAKST,TemperatureF,Dew PointF,Humidity,Sea Level PressureIn,VisibilityMPH,Wind Direction,Wind SpeedMPH,Gust SpeedMPH,PrecipitationIn,Events,Conditions,WindDirDegrees,DateUTC
12:53 AM,32.0,32.0,100,29.97,1.5,Calm,Calm,-,0.02,Snow,Light Snow,0,2012-11-13 09:53:00
1:16 AM,32.0,32.0,100,29.96,2.0,Calm,Calm,-,0.01,Snow,Light Snow,0,2012-11-13 10:16:00
1:53 AM,32.0,32.0,100,29.96,1.5,Calm,Calm,-,0.02,Snow,Light Snow,0,2012-11-13 10:53:00
2:53 AM,32.0,30.9,96,29.97,1.2,Calm,Calm,-,0.05,Snow,Light Snow,0,2012-11-13 11:53:00
3:00 AM,32.0,30.2,93,29.96,1.2,Calm,Calm,-,0.00,Snow,Light Snow,0,2012-11-13 12:00:00
3:53 AM,32.0,32.0,100,29.96,1.2,Calm,Calm,-,0.03,Snow,Light Snow,0,2012-11-13 12:53:00
4:53 AM,32.0,32.0,100,29.96,1.8,Calm,Calm,-,0.01,Snow,Light Snow,0,2012-11-13 13:53:00
5:24 AM,32.0,32.0,100,29.96,1.8,Calm,Calm,-,0.02,Snow,Light Snow,0,2012-11-13 14:24:00
5:53 AM,32.0,32.0,100,29.97,2.0,Calm,Calm,-,0.03,Snow,Light Snow,0,2012-11-13 14:53:00
6:37 AM,32.0,30.2,93,29.96,1.8,Calm,Calm,-,0.02,Snow,Light Snow,0,2012-11-13 15:37:00
6:53 AM,32.0,32.0,100,29.96,2.0,Calm,Calm,-,0.02,Snow,Light Snow,0,2012-11-13 15:53:00
7:35 AM,32.0,32.0,100,29.96,1.5,Calm,Calm,-,0.01,Snow,Light Snow,0,2012-11-13 16:35:00
7:53 AM,32.0,32.0,100,29.96,1.0,Calm,Calm,-,0.02,Snow,Light Snow,0,2012-11-13 16:53:00
8:26 AM,32.0,32.0,100,29.97,1.0,Calm,Calm,-,0.02,Snow,Light Snow,0,2012-11-13 17:26:00
8:41 AM,32.0,32.0,100,29.97,1.0,Calm,Calm,-,0.03,Snow,Light Snow,0,2012-11-13 17:41:00
8:53 AM,32.0,30.9,96,29.97,1.0,Calm,Calm,-,0.04,Snow,Light Snow,0,2012-11-13 17:53:00
9:40 AM,32.0,32.0,100,29.96,1.0,Calm,Calm,-,0.02,Snow,Light Snow,0,2012-11-13 18:40:00
9:53 AM,32.0,30.9,96,29.96,1.0,Calm,Calm,-,0.02,Snow,Light Snow,0,2012-11-13 18:53:00
10:53 AM,32.0,30.9,96,29.96,1.0,Calm,Calm,-,0.06,Snow,Light Snow,0,2012-11-13 19:53:00
11:53 AM,32.0,32.0,100,29.96,0.8,Calm,Calm,-,0.06,Snow,Light Snow,0,2012-11-13 20:53:00
12:28 PM,32.0,30.2,93,29.96,1.0,Calm,Calm,-,0.04,Snow,Light Snow,0,2012-11-13 21:28:00
12:53 PM,32.0,32.0,100,29.95,1.0,Calm,Calm,-,0.05,Snow,Light Snow,0,2012-11-13 21:53:00
1:26 PM,32.0,32.0,100,29.95,1.0,Calm,Calm,-,0.02,Snow,Light Snow,0,2012-11-13 22:26:00
1:45 PM,32.0,32.0,100,29.94,2.0,East,3.5,-,0.02,Snow,Light Snow,100,2012-11-13 22:45:00
1:53 PM,32.0,32.0,100,29.94,2.0,Calm,Calm,-,0.02,Snow,Light Snow,0,2012-11-13 22:53:00
2:31 PM,32.0,32.0,100,29.93,1.8,Calm,Calm,-,0.01,Snow,Light Snow,0,2012-11-13 23:31:00
2:53 PM,32.0,32.0,100,29.93,1.8,Calm,Calm,-,0.01,Snow,Light Snow,0,2012-11-13 23:53:00
3:26 PM,32.0,30.2,93,29.93,1.5,Calm,Calm,-,0.01,Snow,Light Snow,0,2012-11-14 00:26:00
3:53 PM,32.0,32.0,100,29.94,1.8,Calm,Calm,-,0.02,Snow,Light Snow,0,2012-11-14 00:53:00
4:32 PM,32.0,32.0,100,29.94,2.0,Calm,Calm,-,0.02,Snow,Light Snow,0,2012-11-14 01:32:00
4:53 PM,32.0,32.0,100,29.94,2.0,Calm,Calm,-,0.02,Snow,Light Snow,0,2012-11-14 01:53:00
5:14 PM,32.0,30.2,93,29.94,1.8,Calm,Calm,-,0.01,Snow,Light Snow,0,2012-11-14 02:14:00
5:53 PM,32.0,32.0,100,29.95,1.8,Calm,Calm,-,0.03,Snow,Light Snow,0,2012-11-14 02:53:00
6:53 PM,32.0,30.9,96,29.96,1.5,Calm,Calm,-,0.02,Snow,Light Snow,0,2012-11-14 03:53:00
7:53 PM,32.0,32.0,100,29.97,1.2,Calm,Calm,-,0.04,Snow,Light Snow,0,2012-11-14 04:53:00
8:29 PM,32.0,30.2,93,29.97,2.0,ENE,4.6,-,0.02,Snow,Light Snow,60,2012-11-14 05:29:00
8:53 PM,32.0,32.0,100,29.97,2.5,Calm,Calm,-,0.02,Snow,Light Snow,0,2012-11-14 05:53:00
9:25 PM,32.0,32.0,100,29.97,3.0,Calm,Calm,-,0.01,Snow,Light Snow,0,2012-11-14 06:25:00
9:53 PM,32.0,32.0,100,29.98,3.0,Calm,Calm,-,0.01,Snow,Light Snow,0,2012-11-14 06:53:00
10:53 PM,32.0,32.0,100,29.98,3.0,East,3.5,-,0.00,Snow,Light Snow,90,2012-11-14 07:53:00
11:22 PM,32.0,32.0,100,29.98,3.0,Calm,Calm,-,0.00,Snow,Light Snow,0,2012-11-14 08:22:00
11:53 PM,32.0,30.9,96,29.98,4.0,Calm,Calm,-,0.00,,Overcast,0,2012-11-14 08:53:00